PulseSat

PulseSat

MOLNIYA 1-81

Last updated on April 20, 2019, 3:02 a.m. UTC

1 21426U 91043A   19109.08415831  .00000098  00000-0  00000+0 0  9998
2 21426  63.7921 124.3990 6837483 274.9838  16.4600  2.00605396203972
UTC
Height (km)
Latitude
Longitude
Inclination
Orbital Period

Next 30 passes for location: Hong Kong

Rise time Rise Azimuth (degrees) Set time Set Azimuth (degrees) Duration Max altitude (degrees)

No matching passes for this satellites

PulseSat

PulseSat is the new satellites software and hardware trackering solution by Pulsely.
Satellite Two Line Element Set source: US Air Force Space Command

Download PulseSat for iOS
© 2017 Pulsely Limited